SCD 1 1 22490U 93009B 21110.58021177 .00000258 00000-0 21213-4 0 9992 2 22490 24.9703 300.6347 0043083 31.1005 19.9220 14.44605757488405 TECHSAT 1B (GO-32) 1 25397U 98043D 21110.56644774 .00000010 00000-0 24024-4 0 9995 2 25397 98.7662 56.2926 0000375 196.2317 163.8849 14.23706005183256 SCD 2 1 25504U 98060A 21110.54000856 .00000242 00000-0 17457-4 0 9998 2 25504 24.9943 152.8768 0017419 45.0398 105.3025 14.44122151187699 LANDSAT 7 1 25682U 99020A 21110.41980572 .00000042 00000-0 18930-4 0 9995 2 25682 98.0376 169.3248 0001427 69.3043 290.8319 14.57201883170942 DLR-TUBSAT 1 25757U 99029B 21110.55284237 .00000011 00000-0 14401-4 0 9992 2 25757 98.4489 45.1259 0013910 334.0165 26.0329 14.51440553159933 TERRA 1 25994U 99068A 21110.55533118 .00000084 00000-0 28695-4 0 9993 2 25994 98.1784 186.0311 0001298 100.7305 10.4032 14.57124620134914 MAROC-TUBSAT 1 27004U 01056D 21110.37010265 -.00000020 00000-0 28804-4 0 9993 2 27004 99.5597 247.1677 0019119 304.6862 114.9059 13.70145955968207 AQUA 1 27424U 02022A 21110.58766433 .00000154 00000-0 44134-4 0 9992 2 27424 98.2053 52.7547 0002392 93.7793 79.4170 14.57114531 8606 IRS-P6 (RESOURCESAT-1) 1 28051U 03046A 21110.81574508 -.00000003 00000-0 14128-4 0 9996 2 28051 98.4478 187.2227 0058199 192.8779 167.0992 14.34193286910445 SHIYAN 1 (SY-1) 1 28220U 04012A 21110.51223219 -.00000290 00000-0 -18072-4 0 9996 2 28220 97.8903 89.0361 0012486 309.9506 50.0620 15.00341083926760 FORMOSAT-2 (ROCSAT 2) 1 28254U 04018A 21110.55929608 -.00000277 00000-0 -15846-3 0 9998 2 28254 98.6830 135.5735 0002268 131.0439 22.4057 14.00688935865031 AURA 1 28376U 04026A 21110.56028059 .00000162 00000-0 46003-4 0 9994 2 28376 98.2053 54.8826 0001589 75.8954 284.2420 14.57119562891640 IRS-P5 (CARTOSAT-1) 1 28649U 05017A 21110.42058377 .00000158 00000-0 25385-4 0 9994 2 28649 97.7722 178.1140 0002407 124.9087 235.2353 14.83776572864002 SINAH 1 1 28893U 05043D 21110.59279095 .00000046 00000-0 18440-4 0 9994 2 28893 98.0594 238.5238 0016368 61.7743 298.5109 14.61567097825184 EROS B 1 29079U 06014A 21110.58048817 .00003521 00000-0 15238-3 0 9997 2 29079 97.3972 231.7378 0006614 332.6336 84.5375 15.23068335831987 RESURS-DK 1 1 29228U 06021A 21110.43634481 .00000216 00000-0 23531-4 0 9997 2 29228 69.9337 126.4347 0006017 319.2428 40.8282 15.02675379818839 ARIRANG-2 (KOMPSAT-2) 1 29268U 06031A 21110.62196623 .00000177 00000-0 43957-4 0 9994 2 29268 97.9484 352.0704 0015698 265.5705 94.3730 14.62354292786106 LAPAN-TUBSAT 1 29709U 07001A 21110.45468956 .00000049 00000-0 12770-4 0 9991 2 29709 97.9077 71.5305 0012382 186.2372 173.8691 14.82276120771849 CARTOSAT-2 (IRS-P7) 1 29710U 07001B 21110.46498892 .00005511 00000-0 16844-3 0 9990 2 29710 97.8753 190.1886 0173430 88.1042 274.0045 15.20807341771833 HAIYANG-1B 1 31113U 07010A 21110.59543358 -.00000004 00000-0 14712-4 0 9998 2 31113 98.3635 148.0209 0014306 29.6320 330.5671 14.30265219731789 COSMO-SKYMED 1 1 31598U 07023A 21110.58319524 -.00000209 00000-0 -19673-4 0 9993 2 31598 97.8901 295.2958 0001504 89.0339 271.1047 14.82155603750328 TERRASAR-X 1 31698U 07026A 21110.45004245 -.00000224 00000-0 -74760-5 0 9990 2 31698 97.4466 119.0790 0001919 78.7805 58.4802 15.19147218767902 WORLDVIEW-1 (WV-1) 1 32060U 07041A 21110.56704228 .00001613 00000-0 68946-4 0 9990 2 32060 97.3640 231.1960 0003347 98.9380 261.2237 15.24269236756043 YAOGAN 3 1 32289U 07055A 21110.56920758 .00000285 00000-0 43577-4 0 9993 2 32289 97.9777 130.1828 0001941 91.1274 269.0149 14.81082205726449 COSMO-SKYMED 2 1 32376U 07059A 21110.61697319 .00000372 00000-0 53289-4 0 9992 2 32376 97.8901 295.3317 0001368 84.8133 275.3252 14.82150754723074 RADARSAT-2 1 32382U 07061A 21110.52243744 -.00000011 00000-0 12824-4 0 9992 2 32382 98.5774 118.6141 0001262 96.5323 55.2024 14.29982956696858 CARTOSAT-2A 1 32783U 08021A 21110.62007391 .00000295 00000-0 47088-4 0 9994 2 32783 97.8778 171.0786 0014366 95.4521 264.8330 14.78703293700532 HUANJING 1A (HJ-1A) 1 33320U 08041A 21110.47555651 .00000068 00000-0 16594-4 0 9990 2 33320 97.7430 157.0651 0027707 146.5937 213.7033 14.77138647679926 HUANJING 1B (HJ-1B) 1 33321U 08041B 21110.49945442 .00000184 00000-0 32740-4 0 9994 2 33321 97.7505 159.7846 0034652 181.0430 179.0721 14.77354164679937 GEOEYE 1 1 33331U 08042A 21110.54949064 .00000087 00000-0 25473-4 0 9993 2 33331 98.1003 186.2930 0009592 159.2906 200.8702 14.64381452674477 THEOS 1 33396U 08049A 21110.54267262 .00000162 00000-0 96429-4 0 9997 2 33396 98.6939 179.1130 0001235 105.0626 33.7499 14.20049809650646 COSMO-SKYMED 3 1 33412U 08054A 21110.53256590 .00000075 00000-0 16005-4 0 9998 2 33412 97.8897 295.2449 0001358 93.8027 266.3351 14.82150719675523 YAOGAN 4 1 33446U 08061A 21110.42555060 .00000121 00000-0 24079-4 0 9997 2 33446 97.7701 59.8270 0017641 66.7951 293.5115 14.77085986667142 GOSAT (IBUKI) 1 33492U 09002A 21110.54855657 .00000142 00000-0 33440-4 0 9997 2 33492 98.0803 223.0599 0001397 107.4945 252.6412 14.67541611655195 YAOGAN 6 1 34839U 09021A 21110.57571417 .00001371 00000-0 53108-4 0 9994 2 34839 97.0478 107.7016 0027815 10.2021 349.9778 15.27417872666655 DEIMOS-1 1 35681U 09041A 21110.56955299 .00000167 00000-0 34172-4 0 9997 2 35681 97.7687 337.0851 0002517 119.4056 240.7430 14.71886074629561 DUBAISAT-1 1 35682U 09041B 21110.50843793 .00000227 00000-0 46701-4 0 9995 2 35682 97.7551 279.0688 0011261 351.1551 8.9439 14.68874660628191 OCEANSAT-2 1 35931U 09051A 21110.48095359 .00000099 00000-0 36331-4 0 9992 2 35931 98.2909 207.3415 0002032 143.6241 216.5091 14.50855240612940 WORLDVIEW-2 (WV-2) 1 35946U 09055A 21110.60887938 .00000002 00000-0 15247-4 0 9995 2 35946 98.4872 185.9068 0002000 136.7774 223.3577 14.37664509605152 SMOS 1 36036U 09059A 21110.49405973 .00000099 00000-0 45560-4 0 9999 2 36036 98.4449 299.1088 0001146 103.1891 256.9425 14.39758933602407 YAOGAN 7 1 36110U 09069A 21110.52116587 .00000084 00000-0 20330-4 0 9999 2 36110 98.2426 318.4703 0023735 316.5436 43.3910 14.75477122611781 TANDEM-X 1 36605U 10030A 21109.12175556 -.00001134 00000-0 -50838-4 0 9998 2 36605 97.4447 117.7684 0001847 87.3582 350.2016 15.19141291600449 CARTOSAT-2B 1 36795U 10035A 21110.45268133 .00000082 00000-0 18114-4 0 9995 2 36795 97.8751 170.3290 0014153 164.0645 196.1023 14.78719163581554 YAOGAN 10 1 36834U 10038A 21110.49248279 .00000050 00000-0 13317-4 0 9990 2 36834 97.9816 118.2478 0001763 82.6093 277.5321 14.81037541578171 COSMO-SKYMED 4 1 37216U 10060A 21110.49463168 .00000149 00000-0 25286-4 0 9993 2 37216 97.8893 295.2065 0001609 79.8560 280.2829 14.82157347565600 RESOURCESAT-2 1 37387U 11015A 21110.56544002 -.00000210 00000-0 -75818-4 0 9995 2 37387 98.6441 185.8308 0003499 196.7431 163.3635 14.21657566519073 HAIYANG-2A 1 37781U 11043A 21110.57735803 -.00000020 00000-0 23311-4 0 9995 2 37781 99.3176 118.8263 0000347 130.3898 229.7284 13.78729024487116 RASAT 1 37791U 11044D 21110.49318724 .00000060 00000-0 20198-4 0 9990 2 37791 98.1010 204.9253 0022478 26.5779 333.6572 14.64824611517191 MEGHA-TROPIQUES 1 37838U 11058A 21110.28243616 .00000285 00000-0 11927-4 0 9990 2 37838 19.9776 320.5679 0008952 326.5201 33.4637 14.09729451424069 SRMSAT 1 37841U 11058D 21110.22737727 .00000339 00000-0 41077-4 0 9998 2 37841 19.9725 293.0000 0011900 14.2681 142.3100 14.10691499491464 YAOGAN 13 1 37941U 11072A 21110.52490696 .00001147 00000-0 58422-4 0 9999 2 37941 97.5861 52.4242 0003597 73.6244 46.3563 15.18843918520575 PLEIADES 1A 1 38012U 11076F 21110.45126272 .00000008 00000-0 11597-4 0 9998 2 38012 98.2029 186.4670 0001225 92.5742 267.5602 14.58548319497418 ZIYUAN 1-02C (ZY 1-02C) 1 38038U 11079A 21110.49309368 .00000058 00000-0 35887-4 0 9995 2 38038 98.6440 170.6701 0008509 81.4585 278.7566 14.35301970488813 ZIYUAN 3-1 (ZY 3-1) 1 38046U 12001A 21110.51668735 .00001473 00000-0 68800-4 0 9992 2 38046 97.3832 185.6257 0002538 153.4122 333.9470 15.21354387515307 ARIRANG-3 (KOMPSAT-3) 1 38338U 12025B 21110.48096268 .00000066 00000-0 22830-4 0 9994 2 38338 98.1828 51.0219 0009636 257.7302 102.2808 14.61664291476188 KANOPUS-V 1 1 38707U 12039A 21110.53983583 .00000890 00000-0 44944-4 0 9995 2 38707 97.4641 31.7606 0001876 81.7837 91.0384 15.19665361485136 EXACTVIEW-1 (ADS-1B) 1 38709U 12039C 21110.37659983 -.00000006 00000-0 17784-4 0 9995 2 38709 99.0667 159.9845 0010912 188.0722 172.0282 14.24045424454520 SPOT 6 1 38755U 12047A 21110.46714403 .00000003 00000-0 10505-4 0 9994 2 38755 98.2056 178.9164 0001268 98.8886 261.2459 14.58550156458499 PLEIADES 1B 1 39019U 12068A 21110.48597806 .00000008 00000-0 11535-4 0 9998 2 39019 98.1979 186.6109 0001374 100.4177 259.7179 14.58551250446272 GOKTURK 2 1 39030U 12073A 21110.46668341 .00000063 00000-0 17371-4 0 9993 2 39030 97.9127 356.8969 0000342 153.8135 206.3085 14.72806500447094 LANDSAT 8 1 39084U 13008A 21110.55723564 .00000072 00000-0 25999-4 0 9995 2 39084 98.1870 181.8393 0001328 88.8795 271.2556 14.57121197423590 SARAL 1 39086U 13009A 21110.60779580 .00000009 00000-0 19551-4 0 9990 2 39086 98.5464 297.5229 0002056 82.0790 278.0627 14.32049411425966 GAOFEN 1 1 39150U 13018A 21110.50657833 .00000077 00000-0 18205-4 0 9997 2 39150 97.8341 184.9920 0018256 202.2973 157.7455 14.76563901430320 VNREDSAT 1 1 39160U 13021B 21110.48037419 .00000106 00000-0 29817-4 0 9995 2 39160 98.1161 188.6738 0001200 89.3894 270.7453 14.62968337424773 ARIRANG-5 (KOMPSAT-5) 1 39227U 13042A 21110.52858293 .00000110 00000-0 12160-4 0 9996 2 39227 97.6280 296.6027 0001684 93.4431 350.9982 15.04512997420692 YAOGAN 18 1 39363U 13059A 21096.91111731 .15831590 24738-5 19630-3 0 9997 2 39363 97.1692 169.0587 0011679 256.3710 104.3251 16.49197280414219 SKYSAT-1 1 39418U 13066C 21110.46571622 -.00000060 00000-0 -96955-7 0 9998 2 39418 97.5924 188.8272 0020855 246.1660 113.7377 14.99129021405279 DUBAISAT-2 1 39419U 13066D 21110.43125852 .00000852 00000-0 84338-4 0 9992 2 39419 97.4975 157.6288 0012061 256.9353 103.0529 14.94296205404010 GPM-CORE 1 39574U 14009C 21110.55583303 .00005818 00000-0 88373-4 0 9994 2 39574 65.0053 187.0726 0010793 282.3744 77.6194 15.55605013405813 SENTINEL-1A 1 39634U 14016A 21110.50469251 -.00000110 00000-0 -13582-4 0 9991 2 39634 98.1824 119.0907 0001413 81.0558 279.0806 14.59197078375347 KAZEOSAT 1 1 39731U 14024A 21110.48954879 .00000016 00000-0 18530-4 0 9991 2 39731 98.5053 183.4400 0001229 81.2805 278.8524 14.41970285367130 ALOS-2 1 39766U 14029A 21110.49666163 .00000004 00000-0 74735-5 0 9998 2 39766 97.9189 208.6893 0001642 81.8590 278.2847 14.79470398373098 KAZEOSAT 2 1 40010U 14033A 21110.53507478 .00000083 00000-0 16947-4 0 9992 2 40010 97.7746 4.2170 0016812 25.8100 334.3950 14.82109248369807 HODOYOSHI-4 1 40011U 14033B 21110.55751834 .00000162 00000-0 27184-4 0 9995 2 40011 97.7372 354.8462 0027557 22.6959 337.5471 14.81298033369483 DEIMOS-2 1 40013U 14033D 21110.54413532 .00000237 00000-0 34118-4 0 9994 2 40013 97.7960 12.7198 0002618 73.7679 286.3817 14.84806237370437 HODOYOSHI-3 1 40015U 14033F 21110.62268256 .00000111 00000-0 21853-4 0 9999 2 40015 97.6958 339.4537 0037965 42.0976 318.3141 14.78660584368825 SPOT 7 1 40053U 14034A 21110.50035871 -.00000638 00000-0 -12739-3 0 9992 2 40053 98.2218 178.5816 0001404 88.9361 271.2002 14.58537674362436 SKYSAT-2 1 40072U 14037D 21110.50330705 .00000150 00000-0 26771-4 0 9999 2 40072 98.4579 311.7962 0005458 223.9078 136.1700 14.81396436366625 WORLDVIEW-3 (WV-3) 1 40115U 14048A 21110.44993141 .00000112 00000-0 19313-4 0 9993 2 40115 97.8449 186.2452 0002221 66.9084 293.2381 14.85215052362363 GAOFEN 2 1 40118U 14049A 21110.46830825 .00000138 00000-0 24620-4 0 9993 2 40118 97.8061 186.2536 0006236 248.3007 111.7553 14.80675944360504 YAOGAN 21 1 40143U 14053A 21110.58981154 .00001647 00000-0 71675-4 0 9999 2 40143 97.3985 179.9857 0014813 268.7075 227.4735 15.23586029368168 YAOGAN 22 1 40275U 14063A 21110.46667034 -.00000027 00000-0 47166-4 0 9991 2 40275 100.5201 227.9097 0007082 123.7498 236.4288 13.15427805312135 ASNARO 1 40298U 14070A 21110.54684558 .00002216 00000-0 10726-3 0 9995 2 40298 97.3917 192.9601 0001409 73.6856 33.9908 15.19600809357970 HODOYOSHI-1 1 40299U 14070B 21110.48946388 .00001476 00000-0 62578-4 0 9991 2 40299 97.2886 185.6320 0012570 184.7765 301.7419 15.24614780358586 QSAT-EOS 1 40301U 14070D 21110.54753000 .00004509 00000-0 16422-3 0 9995 2 40301 97.2562 183.6397 0024242 175.0145 292.0381 15.28427382358817 YAOGAN 23 1 40305U 14071A 21110.56005792 .00001494 00000-0 75182-4 0 9999 2 40305 97.5585 55.1779 0002011 91.1607 24.2061 15.18781250356338 YAOGAN 24 1 40310U 14072A 21110.49880933 .00000108 00000-0 22962-4 0 9995 2 40310 97.9288 232.3997 0018608 196.2883 163.7735 14.76278302345833 CBERS 4 1 40336U 14079A 21110.51287169 .00000012 00000-0 19380-4 0 9999 2 40336 98.5249 185.2615 0000734 93.2686 266.8591 14.35429441333734 RESURS P2 1 40360U 14087A 21110.47130481 .00001767 00000-0 55729-4 0 9999 2 40360 97.2271 199.1610 0010211 156.2746 332.4833 15.34151108353372 YAOGAN 26 1 40362U 14088A 21110.51790015 .00001908 00000-0 82192-4 0 9993 2 40362 97.2052 173.3603 0011044 124.3756 346.9153 15.23704765351621 SMAP 1 40376U 15003A 21110.60057366 .00000084 00000-0 25272-4 0 9991 2 40376 98.1255 118.6147 0001803 97.9955 262.1451 14.63370242332142 KOMPSAT-3A 1 40536U 15014A 21110.51269831 .00001194 00000-0 72963-4 0 9995 2 40536 97.5761 52.8961 0002548 148.1215 343.9145 15.12197083335127 SENTINEL-2A 1 40697U 15028A 21110.60605968 -.00000689 00000-0 -24646-3 0 9997 2 40697 98.5660 186.4084 0001251 90.5632 269.5707 14.30810840304380 GAOFEN 8 1 40701U 15030A 21110.59538772 .00002518 00000-0 10834-3 0 9997 2 40701 97.5050 238.5092 0008671 136.7139 353.5530 15.23536165324001 CARBONITE 1 (CBNT-1) 1 40718U 15032D 21110.52028171 .00000228 00000-0 41120-4 0 9996 2 40718 97.7971 346.8988 0015733 305.4922 54.4826 14.74943255311077 YAOGAN 27 1 40878U 15040A 21110.45231462 -.00000021 00000-0 58662-4 0 9994 2 40878 100.1852 154.0669 0007846 234.0375 126.0016 13.15968848271397 GAOFEN 9-01 1 40894U 15047A 21110.46657161 .00000132 00000-0 26172-4 0 9991 2 40894 97.8581 188.1362 0034104 135.4398 224.9573 14.76320433301772 LAPAN-A2 1 40931U 15052B 21110.52656761 .00000779 00000-0 19327-4 0 9992 2 40931 5.9976 305.5531 0013808 307.5846 52.2991 14.76672332300721 YAOGAN 28 1 41026U 15064A 21110.52643787 .00001741 00000-0 75945-4 0 9993 2 41026 97.4938 247.1158 0002642 83.2000 347.1055 15.23523150303840 YAOGAN 29 1 41038U 15069A 21110.48695326 .00000044 00000-0 12698-4 0 9993 2 41038 98.0369 104.4045 0001610 47.0935 313.0418 14.80497869291702 KENT RIDGE 1 1 41167U 15077B 21110.18867080 .00001100 00000-0 26839-4 0 9996 2 41167 14.9834 51.4931 0011123 287.3118 109.6834 15.09323413295199 TELEOS 1 1 41169U 15077D 21110.42074116 .00001819 00000-0 66856-4 0 9995 2 41169 14.9746 29.2104 0010379 326.1157 33.8574 15.10987898295414 GAOFEN 4 1 41194U 15083A 21110.58760756 -.00000335 00000-0 00000-0 0 9997 2 41194 0.1009 107.1938 0004813 40.1377 18.7931 1.00271256 19607 JASON-3 1 41240U 16002A 21110.58135060 -.00000051 00000-0 44882-4 0 9990 2 41240 66.0398 87.2199 0008129 274.0715 85.9371 12.80930284245772 SENTINEL-3A 1 41335U 16011A 21110.59824336 -.00000004 00000-0 16266-4 0 9990 2 41335 98.6290 178.9607 0001213 83.9818 276.1501 14.26734550269471 SENTINEL-1B 1 41456U 16025A 21110.46992198 -.00000143 00000-0 -20719-4 0 9990 2 41456 98.1826 118.8823 0001430 77.3214 282.8149 14.59196716265500 ZIYUAN 3-2 (ZY 3-2) 1 41556U 16033A 21110.54352296 .00001393 00000-0 65207-4 0 9995 2 41556 97.3283 184.3398 0004547 57.1977 54.8042 15.21339030271603 NUSAT-1 (FRESCO) 1 41557U 16033B 21110.55808369 .00003491 00000-0 12547-3 0 9993 2 41557 97.3901 204.8367 0014659 80.9372 14.2227 15.29213981272681 NUSAT-2 (BATATA) 1 41558U 16033C 21110.56596362 .00003479 00000-0 11735-3 0 9996 2 41558 97.4002 208.3987 0013685 75.7594 343.0636 15.31309492272861 CARTOSAT-2C 1 41599U 16040A 21110.15547054 .00042869 00000-0 20220-2 0 9992 2 41599 97.4058 170.6596 0012845 213.8050 170.3867 15.19264603267662 SKYSAT-C1 1 41601U 16040C 21110.51706781 .00003368 00000-0 90046-4 0 9996 2 41601 97.1930 189.0479 0003914 115.2132 244.9520 15.38744065268918 LAPAN-A3 1 41603U 16040E 21110.46743464 .00000415 00000-0 22311-4 0 9991 2 41603 97.2629 159.5800 0012410 199.3877 275.7115 15.20002982267777 BIROS 1 41604U 16040F 21110.56437066 .00001129 00000-0 51618-4 0 9996 2 41604 97.2692 164.9174 0012203 176.8129 183.3188 15.22485894268091 GAOFEN 3 1 41727U 16049A 21110.47042470 -.00000037 00000-0 19764-5 0 9997 2 41727 98.4125 119.7812 0001781 99.2760 260.8633 14.42216318247127 SKYSAT-C4 1 41771U 16058B 21110.46663854 .00003009 00000-0 80016-4 0 9998 2 41771 97.1702 180.5979 0001684 71.4191 288.7238 15.38995425255864 SKYSAT-C5 1 41772U 16058C 21110.52409968 .00001256 00000-0 54024-4 0 9992 2 41772 97.3171 179.8292 0001469 91.8682 268.2724 15.24449475255315 SKYSAT-C2 1 41773U 16058D 21110.44113769 .00003076 00000-0 81899-4 0 9997 2 41773 97.1708 180.9129 0001458 69.9921 290.1482 15.38946403255887 SKYSAT-C3 1 41774U 16058E 21110.51963412 .00003161 00000-0 83970-4 0 9991 2 41774 97.1703 180.9417 0002214 71.8438 288.3049 15.38991136255880 ALSAT 1B 1 41785U 16059C 21110.42031958 .00000016 00000-0 12023-4 0 9992 2 41785 97.9667 162.9199 0032582 66.2931 294.1685 14.63395077243790 PATHFINDER 1 1 41787U 16059E 21110.59038010 .00000109 00000-0 29582-4 0 9999 2 41787 97.9711 164.4876 0031719 63.0777 297.3658 14.63801727243873 SCATSAT 1 1 41790U 16059H 21110.43229499 .00000024 00000-0 17526-4 0 9990 2 41790 98.3757 152.6119 0006586 63.4335 296.7536 14.50804505241733 WORLDVIEW-4 1 41848U 16067A 21110.54335233 .00042619 00000-0 29488-3 0 9994 2 41848 97.8020 252.7857 0009321 108.5710 251.6566 15.74357684244489 GOKTURK 1A 1 41875U 16073A 21110.47055518 .00000056 00000-0 20030-4 0 9992 2 41875 98.1233 6.3404 0001621 79.6876 280.4507 14.62787068233444 RESOURCESAT-2A 1 41877U 16074A 21110.45733917 -.00000029 00000-0 69243-5 0 9990 2 41877 98.7589 184.8112 0002732 106.0229 254.1249 14.21641816226667 CARTOSAT-2D 1 41948U 17008A 21110.38396232 .00001010 00000-0 51183-4 0 9997 2 41948 97.4470 171.5278 0007893 15.7141 344.4346 15.19231532231563 SENTINEL-2B 1 42063U 17013A 21110.50115625 .00000011 00000-0 20828-4 0 9993 2 42063 98.5638 186.3061 0001415 83.8758 276.2586 14.30821774215282 ZHUHAI-1 02 (CAS-4B) 1 42759U 17034B 21110.49959277 .00000530 00000-0 45220-4 0 9994 2 42759 43.0162 139.6807 0008172 168.8251 341.0516 15.10160287212385 NUSAT-3 (MILANESAT) 1 42760U 17034C 21110.49465538 .00000710 00000-0 55254-4 0 9996 2 42760 43.0149 136.9333 0008282 192.2409 318.4457 15.10734308212422 ZHUHAI-1 01 (CAS-4A) 1 42761U 17034D 21110.49362997 .00000542 00000-0 45891-4 0 9991 2 42761 43.0165 138.8077 0009038 171.1621 337.8519 15.10241647212387 CARTOSAT-2E 1 42767U 17036C 21110.48383380 .00001132 00000-0 57009-4 0 9997 2 42767 97.5101 169.8524 0010040 56.9055 67.1877 15.19210432212145 FORMOSAT-5 1 42920U 17049A 21110.33900561 .00000016 00000-0 15309-4 0 9999 2 42920 98.2705 190.7179 0012177 109.1956 251.0574 14.50864196193510 SENTINEL-5P 1 42969U 17064A 21110.56475248 -.00000002 00000-0 19768-4 0 9992 2 42969 98.7334 51.2459 0001138 85.8985 274.2321 14.19554584182321 SKYSAT-C11 1 42987U 17068A 21110.59730220 .00003720 00000-0 96541-4 0 9996 2 42987 97.2517 227.1268 0010178 31.8933 328.2928 15.39568746193310 SKYSAT-C10 1 42988U 17068B 21110.58726656 .00003798 00000-0 98426-4 0 9993 2 42988 97.2557 227.0609 0004637 85.0294 275.1481 15.39631665193334 SKYSAT-C9 1 42989U 17068C 21110.57344981 .00003872 00000-0 10061-3 0 9991 2 42989 97.2513 226.4958 0000635 121.8971 238.2337 15.39546136193521 SKYSAT-C8 1 42990U 17068D 21110.56635219 .00003887 00000-0 10110-3 0 9990 2 42990 97.2559 227.4259 0002727 70.0139 290.1400 15.39515470193359 SKYSAT-C7 1 42991U 17068E 21110.55653336 .00003795 00000-0 98908-4 0 9990 2 42991 97.2565 227.4314 0001878 108.5928 251.5522 15.39465965193357 SKYSAT-C6 1 42992U 17068F 21110.54684414 .00003773 00000-0 98381-4 0 9992 2 42992 97.2582 227.6926 0000430 357.1716 2.9527 15.39456286193368 CARTOSAT-2F 1 43111U 18004A 21110.58541613 .00000977 00000-0 49660-4 0 9993 2 43111 97.5046 170.1772 0005967 73.4965 63.9515 15.19220768181346 NUSAT-4 (ADA) 1 43195U 18015D 21110.62060277 .00003039 00000-0 12198-3 0 9991 2 43195 97.4766 244.1713 0018485 97.0413 319.2553 15.25603521178706 NUSAT-5 (MARYAM) 1 43204U 18015K 21110.62245965 .00003226 00000-0 12840-3 0 9993 2 43204 97.4773 244.5153 0017930 98.8529 273.6870 15.25847678178324 GAOFEN 1-02 1 43259U 18031A 21110.51195822 .00000111 00000-0 23108-4 0 9995 2 43259 97.9346 190.2076 0002789 309.1754 50.9215 14.76521122164737 GAOFEN 1-03 1 43260U 18031B 21110.49047192 .00000134 00000-0 26426-4 0 9991 2 43260 97.9341 190.1776 0005577 24.1599 335.9878 14.76517654164724 GAOFEN 1-04 1 43262U 18031D 21110.53341248 .00000130 00000-0 25879-4 0 9994 2 43262 97.9347 190.2172 0003633 334.9976 25.1066 14.76522264164725 SENTINEL-3B 1 43437U 18039A 21110.43053625 -.00000002 00000-0 17227-4 0 9991 2 43437 98.6332 178.7310 0001397 81.7738 278.3601 14.26733334155515 GAOFEN 5 1 43461U 18043A 21110.50108089 .00000054 00000-0 21892-4 0 9995 2 43461 98.2286 49.6426 0002338 130.4129 229.7258 14.57814765157031 GAOFEN 6 1 43484U 18048A 21110.49368647 .00000126 00000-0 25398-4 0 9996 2 43484 97.9586 192.5327 0010706 123.1919 237.0322 14.76502437155423 GAOFEN 11-1 1 43585U 18063A 21110.53592606 .00001571 00000-0 68522-4 0 9995 2 43585 97.3542 190.8115 0013788 214.9250 270.1277 15.23551113151990 AEOLUS 1 43600U 18066A 21110.53771035 .00051702 00000-0 19910-3 0 9998 2 43600 96.7176 118.2710 0007184 88.7385 271.4711 15.87162763154065 ICESAT-2 1 43613U 18070A 21110.58911457 .00000755 00000-0 27244-4 0 9998 2 43613 92.0004 144.1498 0002824 100.7836 259.3731 15.28274953144797 HYSIS 1 43719U 18096A 21110.44452950 .00000200 00000-0 34231-4 0 9995 2 43719 97.8632 177.4906 0004715 17.2237 342.9141 14.78612807129048 KAZSTSAT 1 43783U 18099AB 21110.47977181 .00000438 00000-0 46719-4 0 9997 2 43783 97.6796 181.6051 0006897 234.3297 125.7281 14.93637613129666 SAUDISAT 5A 1 43831U 18102A 21110.57052441 .00001387 00000-0 93344-4 0 9990 2 43831 97.5364 187.4852 0014418 181.5960 288.8053 15.08268521130420 SAUDISAT 5B 1 43833U 18102C 21110.52133708 .00000470 00000-0 33898-4 0 9993 2 43833 97.5360 188.0222 0014931 189.1985 298.4956 15.08701446130446 GAOFEN 10R 1 44622U 19066A 21110.59392312 .00000204 00000-0 33233-4 0 9993 2 44622 97.8524 52.7408 0001670 67.4170 292.7221 14.80585225 83433 CARTOSAT-3 1 44804U 19081A 21110.53418176 .00000868 00000-0 44414-4 0 9992 2 44804 97.4519 174.1498 0011676 254.0712 216.1610 15.19230338 77425 GAOFEN 12 1 44819U 19082A 21110.51884309 .00000036 00000-0 11454-4 0 9997 2 44819 97.8910 133.7818 0002132 81.8496 278.2959 14.80253615 75376 NUSAT-7 (SOPHIE) 1 45017U 20003B 21110.56152705 .00003222 00000-0 11273-3 0 9994 2 45017 97.2692 176.8125 0015384 72.7656 34.8705 15.30126018 70492 NUSAT-8 (MARIE) 1 45018U 20003C 21110.49316155 .00004380 00000-0 13849-3 0 9995 2 45018 97.2801 176.3578 0014225 78.1077 336.5474 15.33219968 70431 NUSAT-6 (HYPATIA) 1 46272U 20061A 21110.62371878 .00002014 00000-0 91220-4 0 9992 2 46272 97.3712 185.4648 0008522 110.1681 250.0475 15.21988389 34872 NEMO-HD 1 46277U 20061F 21110.57041939 .00000547 00000-0 31612-4 0 9991 2 46277 97.4343 185.4961 0001611 140.7449 330.6140 15.16310342 34763 NUSAT-12 (DOROTHY) 1 46827U 20079A 21110.47567637 .00003616 00000-0 12153-3 0 9996 2 46827 97.2430 185.1067 0010161 28.5024 26.8252 15.31409652 25291 NUSAT-9 (ALICE) 1 46828U 20079B 21110.47907587 .00003803 00000-0 12513-3 0 9997 2 46828 97.2302 185.2181 0005833 67.2875 349.5369 15.32098613 25311 NUSAT-11 (CORA) 1 46829U 20079C 21110.48986205 .00003776 00000-0 12460-3 0 9993 2 46829 97.2354 185.1653 0009106 42.4846 14.5735 15.31989271 25305 NUSAT-15 (KATHERINE) 1 46830U 20079D 21110.61055721 -.00006888 00000-0 -22063-3 0 9999 2 46830 97.2466 185.6516 0004862 34.9936 85.6499 15.32049419 25335 NUSAT-14 (HEDY) 1 46831U 20079E 21110.55975222 .00003448 00000-0 11362-3 0 9997 2 46831 97.2450 185.3694 0010203 37.3672 75.5190 15.32080131 25313 NUSAT-10 (CAROLINE) 1 46832U 20079F 21110.51887299 .00003578 00000-0 11772-3 0 9999 2 46832 97.2464 185.2711 0010294 38.0761 86.9595 15.32109243 25305 NUSAT-13 (EMMY) 1 46833U 20079G 21110.48526211 .00003506 00000-0 11553-3 0 9998 2 46833 97.2457 185.3153 0009698 40.1976 55.5850 15.32082354 25306 NUSAT-17 (MARY) 1 46835U 20079J 21110.56756762 .00003387 00000-0 11273-3 0 9991 2 46835 97.2459 185.3621 0010480 50.2329 65.4296 15.31774611 25313 NUSAT-18 (VERA) 1 46836U 20079K 21110.49752699 .00003194 00000-0 10495-3 0 9990 2 46836 97.2455 185.4263 0011125 56.7754 1.0525 15.32223438 25311 NUSAT-16 (LISE) 1 46840U 20079P 21110.47263785 .00003323 00000-0 10950-3 0 9996 2 46840 97.2475 185.3527 0008413 54.3651 72.6884 15.32123126 25300 SENTINEL-6 1 46984U 20086A 21110.34746545 -.00000061 00000-0 00000-0 0 9998 2 46984 66.0415 87.8380 0008018 266.0854 93.9244 12.80930878 19172